星链-5942 (STARLINK-5942 )

导读 | 豆包AI

STARLINK-5942是美国太空探索技术公司(SpaceX)星链(Starlink)互联网星座中的一颗卫星,于2023年3月24日发射升空,属于星链项目批量部署的卫星之一。该卫星旨在为全球提供低延迟、高速率的卫星互联网服务,尤其覆盖地面网络难以抵达的偏远区域,助力全球互联网接入的普及。

基本信息
目录编号:
56014
目录名称:
STARLINK-5942
国际标识:
2023-042AE
轨道中心:
EARTH
卫星名称:
星链-5942
卫星全名:
星链-5942 (STARLINK-5942 )
卫星状态:
在轨 (已飞行1087 天)
发射日期:
2023-03-24 UTC
国别 :
美国 (US)
星等 :
--
轨道信息
数据来源 国际轨道数据
星历时间: 2026-03-15T14:00:01+0800
12小时前
查看轨道信息
半长轴: 6902.72km
偏心率: 0.0001271
轨道倾角: 43.001°
近地点辐角 281.199°
升交点赤经 12.752°
平近点角 252.348°
近地点: 523.705km
远地点: 525.461km
周期: 95.124分钟
每日圈数: 15.138137
详细信息
固有亮度:
5
最大亮度:
2.5
卫星平台:
Starlink v1.5
覆盖范围:
全球
运营商:
太空探索技术公司
运营商所在国:
美国
制造商(研发单位):
太空探索技术公司
制造商所在国:
美国
使用方式:
暂无
卫星简介
星链(Starlink)计划是由太空探索技术公司(SpaceX)提出的一个巨型低轨卫星互联网星座项目,计划在2019年至2024年间在太空搭建由约1.2万颗卫星组成的“星链”网络,其中1584颗将部署在地球上空550千米处的近地轨道,并从2020年开始工作。该卫星仍在工作。
2D轨道图
3D轨道图
轨道高度分析图
轨道倾角分析图
轨道综合分析图
查看轨道综合分析图